Regional Weather Roundup
Issued by NWS

Home | Current Version | Previous Version | Graphics & Text | Print | Product List | Glossary On
Versions: 1 2 3 4 5 6 7 8 9 10 11 12 13 14 15 16 17 18 19 20 21 22 23 24 25 26 27 28 29 30 31 32 33 34 35 36 37 38 39 40 41 42 43 44 45 46 47 48 49 50
000
ASUS43 KDTX 280210
RWRMI
MICHIGAN HOURLY REGIONAL WEATHER ROUNDUP
NATIONAL WEATHER SERVICE DETROIT/PONTIAC MI
900 PM EST TUE JAN 27 2015

NOTE: "FAIR" INDICATES FEW OR NO CLOUDS BELOW 12,000 FEET WITH NO
SIGNIFICANT WEATHER AND/OR OBSTRUCTION TO VISIBILITY.

MIZ047>049-052>055-059>063-066>070-074>076-081>083-280300-
SOUTHEAST LOWER MICHIGAN

CITY           SKY/WX    TMP DP  RH WIND       PRES   REMARKS
ADRIAN         CLEAR     18  10  71 N6        30.23R
ALMA           CLEAR     12   5  72 CALM      30.23S
ANN ARBOR      CLEAR     19  10  68 N7        30.22R
BAD AXE        CLEAR     11   7  84 N3        30.21F
DETROIT CITY   CLEAR     21  10  62 N6        30.22S
DETROIT        CLEAR     20  12  71 N7        30.23R
FLINT          CLEAR     17  10  74 NW3       30.23R
GROSSE ILE     CLEAR     19  10  68 N5        30.21R
HILLSDALE      CLEAR     17  10  72 CALM      30.19S
HOWELL         CLEAR     16  10  78 CALM      30.20S

CITY           SKY/WX    TMP DP  RH WIND       PRES   REMARKS
JACKSON        CLEAR     17  10  74 CALM      30.21R
LAMBERTVILLE   CLEAR     21  12  68 N3        30.23R
LANSING        CLEAR     16   9  74 CALM      30.23S
LAPEER         NOT AVBL
MASON          CLEAR     15  10  78 CALM      30.22R
MONROE         CLEAR     19  12  73 N6        30.21R
MT. CLEMENS    CLEAR     18  10  71 NW7       30.19S
PONTIAC        CLEAR     16   9  74 N5        30.19S
PORT HOPE        N/A     22  11  62 N10       30.20F
PORT HURON     CLEAR     18  10  73 NW6       30.20S
TRI CITIES     CLEAR     17  11  77 CALM      30.25R
YPSILANTI      CLEAR     20  10  65 N7        30.22S
$$
MIZ043>046-050>051-056>058-064>065-071>073-077>080-280300-
SOUTHWEST LOWER MICHIGAN

CITY           SKY/WX    TMP DP  RH WIND       PRES   REMARKS
BATTLE CREEK   PTCLDY    19   9  65 CALM      30.22S
BENTON HARBOR  CLEAR     18  13  80 CALM      30.24S
BIG RAPIDS     CLEAR     16   6  65 CALM      30.21S
COLDWATER      CLEAR     17  10  77 CALM      30.21S
HOLLAND        CLEAR     19  12  74 CALM      30.25R
GRAND RAPIDS   CLEAR     21   8  57 CALM      30.23S
KALAMAZOO      CLEAR     17  10  74 CALM      30.23S
MARSHALL       CLEAR     16   8  72 CALM      30.21F
MUSKEGON       CLEAR     21  12  68 N5        30.25S
$$
MIZ016>042-280300-
NORTHERN LOWER MICHIGAN

CITY           SKY/WX    TMP DP  RH WIND       PRES   REMARKS
ALPENA         CLEAR      3  -2  79 CALM      30.25S
BEAVER ISLAND  CLEAR      6   0  78 CALM      30.24F
BELLAIRE       CLEAR     10   7  87 CALM      30.25F
CADILLAC       CLEAR     13   5  70 CALM      30.19S
CHARLEVOIX     CLEAR      8   4  83 CALM      30.27F
FRANKFORT      CLEAR     13  10  88 CALM      30.24F
GAYLORD        CLEAR      3   0  87 CALM      30.19S
GRAYLING       CLEAR      3  -3  75 CALM      30.21S
HARBOR SPRINGS CLEAR      8   3  79 NE3       30.24S
HOUGHTON LAKE  CLEAR     10   0  63 NW3       30.20S
MANISTEE       CLEAR     16   7  67 CALM      30.24F
OSCODA         CLEAR      7   1  79 NW3       30.23F
PELLSTON       PTCLDY     3  -2  79 CALM      30.25S
TRAVERSE CITY  CLEAR     13   5  70 CALM      30.24S
$$
MIZ007>008-015-280300-
EASTERN UPPER MICHIGAN

CITY           SKY/WX    TMP DP  RH WIND       PRES   REMARKS
KINROSS        PTCLDY     5  -6  61 CALM      30.22F
MACKINAC ISLAN PTCLDY     8  -1  65 W3        30.24S
NEWBERRY       PTCLDY     2  -3  78 SW5       30.22S
S. S. MARIE    PTCLDY     8  -5  55 CALM      30.23S
$$
MIZ004>006-011>014-085-280300-
CENTRAL UPPER MICHIGAN

CITY           SKY/WX    TMP DP  RH WIND       PRES   REMARKS
MANISTIQUE     PTCLDY     7   5  91 CALM      30.23F
ESCANABA       CLOUDY    21  16  79 CALM      30.24F
MENOMINEE      CLOUDY    19  16  86 CALM      30.24S
SAWYER-GWINN   CLOUDY    21  16  79 SW5       30.18S
$$
MIZ001>003-009>011-084-280300-
WESTERN UPPER MICHIGAN

CITY           SKY/WX    TMP DP  RH WIND       PRES   REMARKS
IRON MOUNTAIN  CLOUDY    22  17  81 S3        30.17F
HOUGHTON       CLOUDY    24  18  77 S3        30.14F
COPPER HARBOR    N/A     25  19  78 CALM      30.18F
IRONWOOD       CLOUDY    25  23  93 SW7       30.12S
$$

ABBREVIATIONS USED IN REMARKS
   TC - TEMPERATURE IN CELSIUS
  WCI - WIND CHILL INDEX
   HX - HEAT INDEX
  VSB - VISIBILITY



USA.gov is the U.S. government's official web portal to all federal, state and local government web resources and services.